Location: *
(52.2090°N, 4.1550°W)
Time: 20:35:40
(UTC+00:00)

Cosmos 1825 - Pass Details

Date: 19 July 2019
Orbit: 504 x 509 km, 82.5° (Epoch: 19 August)

Event Time Altitude Azimuth Distance (km) Brightness Sun altitude
Exits shadow 22:52:14 - 224° (SW) 2,453 5.4 -14.4°
Reaches altitude 10° 22:54:17 10° 237° (WSW) 1,722 4.7 -14.5°
Maximum altitude 22:57:21 23° 292° (WNW) 1,112 4.4 -14.7°
Drops below altitude 10° 23:00:26 10° 347° (NNW) 1,732 6.3 -14.8°
Sets 23:02:54 0° 2° (N) 2,622 7.2 -15.0°
